Location: Heidgraben
(53.7081°N, 9.6576°E)
Time: 23:44:54
(UTC+00:00)

Cosmos 2333 Rocket - Pass Details

Date: 31 October 2020
Orbit: 841 x 861 km, 70.8° (Epoch: 28 November)

Event Time Altitude Azimuth Distance (km) Brightness Sun altitude
Exits shadow 01:51:12 14° 1° (N) 2,208 4.6 -38.9°
Maximum altitude 01:51:22 14° 3° (N) 2,206 4.7 -38.8°
Drops below altitude 10° 01:54:17 10° 34° (NE) 2,479 5.2 -38.5°
Sets 01:58:05 0° 59° (ENE) 3,411 6.3 -38.0°
